TimeEST,TemperatureF,Dew PointF,Humidity,Sea Level PressureIn,VisibilityMPH,Wind Direction,Wind SpeedMPH,Gust SpeedMPH,PrecipitationIn,Events,Conditions,WindDirDegrees,DateUTC
12:56 AM,36.0,30.0,79,30.29,10.0,North,5.8,-,N/A,,Clear,360,2012-11-16 05:56:00
1:56 AM,36.0,30.0,79,30.28,10.0,North,5.8,-,N/A,,Clear,360,2012-11-16 06:56:00
2:56 AM,35.1,30.0,82,30.28,10.0,North,8.1,-,N/A,,Clear,350,2012-11-16 07:56:00
3:56 AM,36.0,30.0,79,30.29,9.0,North,5.8,-,N/A,,Clear,10,2012-11-16 08:56:00
4:56 AM,35.1,30.0,82,30.29,9.0,North,5.8,-,N/A,,Clear,360,2012-11-16 09:56:00
5:56 AM,35.1,28.9,78,30.29,9.0,North,6.9,-,N/A,,Clear,360,2012-11-16 10:56:00
6:56 AM,35.1,28.9,78,30.30,8.0,North,4.6,-,N/A,,Clear,10,2012-11-16 11:56:00
7:56 AM,36.0,28.0,73,30.31,8.0,North,8.1,-,N/A,,Clear,10,2012-11-16 12:56:00
8:56 AM,39.9,28.9,65,30.32,9.0,North,11.5,-,N/A,,Clear,360,2012-11-16 13:56:00
9:56 AM,42.1,30.0,62,30.32,9.0,North,8.1,-,N/A,,Clear,10,2012-11-16 14:56:00
10:56 AM,45.0,30.0,56,30.31,10.0,NE,6.9,-,N/A,,Clear,40,2012-11-16 15:56:00
11:56 AM,48.9,28.0,44,30.31,10.0,Variable,5.8,-,N/A,,Clear,0,2012-11-16 16:56:00
12:56 PM,48.0,24.1,39,30.28,10.0,North,10.4,-,N/A,,Clear,360,2012-11-16 17:56:00
1:56 PM,48.0,26.1,42,30.29,10.0,North,6.9,-,N/A,,Clear,350,2012-11-16 18:56:00
2:56 PM,48.0,25.0,41,30.28,10.0,NNE,5.8,-,N/A,,Clear,20,2012-11-16 19:56:00
3:56 PM,46.0,26.1,46,30.31,10.0,NW,3.5,-,N/A,,Partly Cloudy,320,2012-11-16 20:56:00
4:56 PM,45.0,26.1,48,30.32,10.0,Calm,Calm,-,N/A,,Clear,0,2012-11-16 21:56:00
5:56 PM,41.0,27.0,57,30.34,10.0,NNW,6.9,-,N/A,,Clear,340,2012-11-16 22:56:00
6:56 PM,39.0,30.0,70,30.34,10.0,Calm,Calm,-,N/A,,Clear,0,2012-11-16 23:56:00
7:56 PM,39.0,25.0,57,30.36,10.0,NNW,6.9,-,N/A,,Clear,340,2012-11-17 00:56:00
8:56 PM,37.0,25.0,62,30.37,10.0,North,4.6,-,N/A,,Clear,360,2012-11-17 01:56:00
9:56 PM,34.0,24.1,67,30.39,10.0,ENE,3.5,-,N/A,,Clear,60,2012-11-17 02:56:00
10:56 PM,33.1,25.0,72,30.41,10.0,North,4.6,-,N/A,,Clear,10,2012-11-17 03:56:00
11:56 PM,34.0,23.0,64,30.43,10.0,North,3.5,-,N/A,,Clear,10,2012-11-17 04:56:00